Content
SEND FEEDBACK

Daily
Averages
Monthly
Summary
United Kingdom

FINCHINGFIELD, ENGLAND


Home > Europe > United Kingdom > England
Elevation: 331 feet     Latitude: 51 58N     Longitude: 000 30E

WEATHER
 
SELECT A DAY
Number of Records: 297,635;   Date Range: 7/1/96 - 9/20/14
 
SHARE

PRINT THIS DATA

[ ← Previous Day ]
WEATHER ALMANAC - SEPTEMBER 28, 2013
[ Next Day → ]
[ °C ]   °F
Weather ElementAverageHighLow
Temperature57 °F64.4 °F (11:20 am)50 °F (12:50 am)
Dewpoint50 °F55.4 °F (10:20 am)44.6 °F (4:20 pm)
Humidity78.7 %94 % (12:50 am)55 % (3:20 pm)
Barometer29.84 in29.95 in (12:50 am)29.80 in (4:20 pm)
Wind Speed11.7 mph16.1 mph (12:50 pm)
Wind Gust25.3 mph (2:50 pm)
Weather ElementAverage
Visibility3.4 mi
Wind DirectionE (86.6 °)

Weather ElementTotal
Precipitation---
Heating Degree Days7.8 (Base 65)
Growing Degree Days7.2 (Base 50)
Averaged from 47 records on September 28, 2013
WEATHER CONDITIONS BREAKOUT
WIND DIRECTION BREAKOUT
WEATHER BY HOUR - SEPTEMBER 28, 2013
[ °C ]   °F
Local TimeTemperatureDewpointHumidityBarometerVisibilityWind DirectionWind SpeedGust SpeedPrecipitationEventsConditions
12:50 AM50.0 °F48.2 °F94 %29.95 in2.8 miEast (80°)5.8 mphHaze
1:20 AM50.0 °F48.2 °F94 %29.92 in2.5 miEast (80°)6.9 mphHaze
1:50 AM50.0 °F48.2 °F94 %29.92 in2.5 miEast (80°)6.9 mphHaze
2:20 AM50.0 °F48.2 °F94 %29.92 in1.9 miEast (80°)6.9 mphHaze
2:50 AM50.0 °F48.2 °F94 %29.89 in1.4 miEast (80°)6.9 mphHaze
3:20 AM50.0 °F48.2 °F94 %29.89 in1.4 miENE (70°)8.1 mphMist
3:50 AM51.8 °F50.0 °F94 %29.86 inEast (90°)8.1 mphMist
4:20 AM51.8 °F50.0 °F94 %29.86 inEast (80°)6.9 mphMist
4:50 AM51.8 °F50.0 °F94 %29.86 inEast (80°)8.1 mphHaze
5:20 AM51.8 °F50.0 °F94 %29.86 inEast (80°)9.2 mphHaze
5:50 AM51.8 °F50.0 °F94 %29.86 inEast (80°)8.1 mphHaze
6:20 AM51.8 °F50.0 °F94 %29.86 inEast (90°)9.2 mphHaze
6:50 AM51.8 °F50.0 °F94 %29.86 in2.8 miEast (90°)8.1 mphHaze
7:20 AM51.8 °F50.0 °F94 %29.86 in2.5 miEast (90°)6.9 mphHaze
7:50 AM51.8 °F50.0 °F94 %29.86 in2.8 miEast (80°)8.1 mphHaze
8:20 AM53.6 °F50.0 °F88 %29.86 in3.1 miEast (80°)8.1 mphHaze
8:50 AM55.4 °F51.8 °F88 %29.86 in4.3 miEast (80°)8.1 mph
9:20 AM57.2 °F53.6 °F88 %29.86 in4.3 miEast (80°)10.4 mph
9:50 AM57.2 °F53.6 °F88 %29.86 inEast (80°)12.7 mphClear
10:20 AM60.8 °F55.4 °F82 %29.86 inEast (80°)15.0 mphClear
10:50 AM62.6 °F55.4 °F77 %29.86 in6.2 miEast (100°)11.5 mphPartly Cloudy
11:20 AM64.4 °F55.4 °F73 %29.86 inEast (100°)13.8 mphClear
11:50 AM64.4 °F55.4 °F73 %29.86 inESE (110°)15.0 mphClear
12:20 PM64.4 °F55.4 °F73 %29.83 inESE (110°)13.8 mphClear
12:50 PM64.4 °F55.4 °F73 %29.83 in6.2 miEast (100°)16.1 mphPartly Cloudy
1:20 PM64.4 °F55.4 °F73 %29.83 inESE (110°)15.0 mphClear
1:50 PM64.4 °F53.6 °F68 %29.83 inEast (100°)16.1 mphClear
2:20 PM64.4 °F51.8 °F64 %29.83 inESE (110°)15.0 mphClear
2:50 PM62.6 °F51.8 °F68 %29.83 inEast (90°)13.8 mph25.3 mphClear
3:20 PM62.6 °F46.4 °F55 %29.83 inEast (80°)15.0 mphClear
3:50 PM60.8 °F46.4 °F59 %29.83 inEast (90°)13.8 mphClear
4:20 PM60.8 °F44.6 °F55 %29.80 in6.2 miEast (80°)12.7 mph
4:50 PM60.8 °F46.4 °F59 %29.80 inEast (80°)12.7 mphClear
5:20 PM60.8 °F44.6 °F55 %29.80 inEast (90°)15.0 mphClear
5:50 PM59.0 °F44.6 °F59 %29.80 inEast (80°)13.8 mphClear
6:20 PM59.0 °F46.4 °F63 %29.80 inEast (80°)15.0 mphClear
6:50 PM57.2 °F48.2 °F72 %29.80 inEast (80°)15.0 mphClear
7:20 PM57.2 °F48.2 °F72 %29.80 inEast (80°)15.0 mphClear
7:50 PM57.2 °F48.2 °F72 %29.80 inEast (80°)15.0 mphClear
8:20 PM57.2 °F48.2 °F72 %29.80 inEast (80°)15.0 mphClear
8:50 PM57.2 °F48.2 °F72 %29.80 inEast (80°)15.0 mphClear
9:20 PM57.2 °F48.2 °F72 %29.80 inEast (80°)15.0 mphClear
9:50 PM57.2 °F50.0 °F77 %29.83 inEast (90°)12.7 mphClear
10:20 PM57.2 °F50.0 °F77 %29.83 inEast (90°)11.5 mphClear
10:50 PM57.2 °F50.0 °F77 %29.80 inEast (90°)13.8 mphClear
11:20 PM57.2 °F48.2 °F72 %29.80 inEast (90°)13.8 mphClear
11:50 PM57.2 °F48.2 °F72 %29.80 inEast (90°)13.8 mphClear
Hourly data recorded from EGSS, located miles away from Finchingfield, England







STORIES FROM OUR PARTNERS